[[[{"header":{"parameterUnit":"kt","parameterCategory":2,"dx":1,"dy":1,"la1":30.253999710083008,"la2":30.299108505249023,"lo1":-89.0895004272461,"lo2":-89.04439544677734,"nx":28,"ny":28,"refTime":"2022-09-23T21:00:00:Z","depth":0,"parameterNumber":1,"parameterNumberName":"U-component_of_WINDS"},"data":[-4.7445,-4.7585,-4.7556,-4.7702,-4.7701,-4.7796,-4.7821,-4.785,-4.7866,-4.7977,-4.8036,-4.8023,-4.8029,-4.8093,-4.8156,-4.8149,-4.8178,-4.8248,-4.8228,-4.7941,-4.79,-4.786,-4.7824,-4.8254,-4.8255,-4.8528,-4.853,-4.8532,-4.7234,-4.7234,-4.7303,-4.7351,-4.741,-4.7325,-4.7356,-4.7411,-4.7499,-4.7521,-4.7578,-4.7674,-4.7747,-4.7729,-4.7795,-4.786,-4.7825,-4.788,-4.7875,-4.7878,-4.7571,-4.7533,-4.7908,-4.7908,-4.7907,-4.7907,-4.7907,-4.7907,-4.6843,-4.6928,-4.6939,-4.7014,-4.703,-4.7063,-4.7139,-4.712,-4.7188,-4.7252,-4.7205,-4.7306,-4.7323,-4.7389,-4.7405,-4.7482,-4.7416,-4.7469,-4.7482,-4.7496,-4.7515,-4.7124,-4.7492,-4.7491,-4.749,-4.7489,-4.7488,0,-4.6547,-4.6517,-4.6581,-4.6638,-4.6691,-4.6732,-4.6765,-4.6812,-4.674,-4.68,-4.6884,-4.6928,-4.7016,-4.7093,-4.7149,-4.7154,-4.7075,-4.7064,-4.71,-4.7124,-4.7137,-4.7132,-4.6632,-4.7054,-4.705,-4.7047,-4.7045,-4.7044,-4.615,-4.6254,-4.6252,-4.6301,-4.6312,-4.6394,-4.6436,-4.6365,-4.6414,-4.6445,-4.6525,-4.66,-4.6657,-4.68,-4.6778,-4.6845,-4.6807,-4.6971,-4.6817,-4.6834,-4.681,-4.6804,-4.6814,-4.7003,-4.7008,-4.7012,-4.7016,0,-4.5929,-4.5881,-4.6032,-4.6021,-4.6021,-4.6134,-4.6124,-4.6208,-4.618,-4.6291,-4.6313,-4.6271,-4.6356,-4.6307,-4.6396,-4.6368,-4.6554,-4.6515,-4.6546,-4.6536,-4.6678,-4.6666,-4.7148,-4.7207,-4.676,-4.6764,-4.6768,0,-4.5572,-4.5712,-4.5631,-4.5722,-4.5874,-4.5797,-4.595,-4.5942,-4.5954,-4.6041,-4.5941,-4.6025,-4.5949,-4.6027,-4.5986,-4.6129,-4.6146,-4.6134,-4.6122,-4.6143,-4.6145,-4.617,-4.615,-4.609,-4.6087,-4.6085,-4.6083,0,-4.5232,-4.5353,-4.5499,-4.5519,-4.5522,-4.5593,-4.5598,-4.5612,-4.5656,-4.5704,-4.5731,-4.5795,-4.583,-4.5881,-4.5828,-4.5725,-4.6002,-4.585,-4.5989,-4.5991,-4.6055,-4.6052,-4.6489,-4.608,-4.6079,-4.6079,-4.6078,0,-4.4936,-4.4985,-4.5205,-4.5204,-4.5239,-4.5337,-4.5392,-4.5464,-4.5487,-4.5466,-4.5504,-4.5433,-4.5554,-4.5406,-4.5571,-4.5452,-4.5493,-4.5491,-4.5501,-4.551,-4.5346,-4.56,-4.602,-4.6063,-4.5516,-4.5511,-4.5507,0,-4.456,-4.4769,-4.4704,-4.4916,-4.5006,-4.4885,-4.4992,-4.5015,-4.4997,-4.507,-4.505,-4.5137,-4.5016,-4.5037,-4.5125,-4.5109,-4.5264,-4.5086,-4.5197,-4.5201,-4.5194,-4.558,-4.5655,-4.5933,-4.5447,-4.5453,-4.5458,0,-4.4262,-4.4264,-4.4306,-4.4325,-4.4343,-4.4418,-4.4541,-4.4609,-4.4661,-4.4699,-4.4801,-4.4921,-4.4835,-4.487,-4.4819,-4.4914,-4.5157,-4.481,-4.4809,-4.4874,-4.5412,-4.5482,-4.5529,-4.5101,-4.5109,-4.5114,-4.541,0,-4.3826,-4.3925,-4.4037,-4.4085,-4.4135,-4.4265,-4.4211,-4.4271,-4.4215,-4.4193,-4.4342,-4.4351,-4.4423,-4.4463,-4.4411,-4.4643,-4.4597,-4.4505,-4.4359,-4.4613,-4.4709,-4.4748,-4.422,-4.4215,-4.4212,-4.4208,0,0,-4.3479,-4.3619,-4.3545,-4.3661,-4.3699,-4.3572,-4.3716,-4.3739,-4.3789,-4.3818,-4.3735,-4.3908,-4.392,-4.4108,-4.4182,-4.4212,-4.4249,-4.4163,-4.4492,-4.4524,-4.4554,-4.4657,-4.4699,-4.4201,-4.42,-4.4199,-4.4197,0,-4.3308,-4.3319,-4.3461,-4.348,-4.3506,-4.3475,-4.3509,-4.3513,-4.3506,-4.3652,-4.3548,-4.3632,-4.3774,-4.3799,-4.383,-4.4138,-4.4057,-4.4164,-4.4347,-4.4455,-4.4492,-4.4525,-4.4634,-4.4675,-4.4188,-4.4189,-4.4189,0,-4.3005,-4.3007,-4.307,-4.3149,-4.3166,-4.3262,-4.3094,-4.3204,-4.3275,-4.3135,-4.3283,-4.3281,-4.3311,-4.3496,-4.3577,-4.3505,-4.3885,-4.3756,-4.3779,-4.3788,-4.389,-4.3935,-4.3974,-4.3452,-4.3449,-4.3447,0,0,-4.2866,-4.2957,-4.2937,-4.3109,-4.3126,-4.3082,-4.3129,-4.3078,-4.3106,-4.3118,-4.3114,-4.3146,-4.3227,-4.3282,-4.3356,-4.3566,-4.3567,-4.3668,-4.3702,-4.3731,-4.3755,-4.3865,-4.3909,-4.3438,-4.3438,-4.3437,0,0,-4.28,-4.2782,-4.272,-4.2912,-4.2941,-4.2935,-4.3042,-4.2967,-4.3027,-4.3007,-4.2929,-4.2934,-4.3106,-4.311,-4.2996,-4.3303,-4.316,-4.3186,-4.3295,-4.3338,-4.3372,-4.3368,-4.2827,0,0,0,0,0,-4.2597,-4.2783,-4.2728,-4.2752,-4.2853,-4.2966,-4.2978,-4.2916,-4.2815,-4.2901,-4.2886,-4.2795,-4.3031,-4.2929,-4.2955,-4.3083,-4.3323,-4.3343,-4.3363,-4.3552,-4.3598,-4.3637,0,0,0,0,0,0,-4.2606,-4.2636,-4.2722,-4.2725,-4.2747,-4.2958,-4.2772,-4.2761,-4.2804,-4.2784,-4.28,-4.2795,-4.2746,-4.2911,-4.2936,-4.3059,-4.2819,-4.3331,-4.3348,-4.3364,-4.3568,-4.3605,-4.3637,0,0,0,0,0,-4.2613,-4.2637,-4.2816,-4.2722,-4.2741,-4.2703,-4.2765,-4.2754,-4.2786,-4.2764,-4.2755,-4.2735,-4.2752,-4.2768,-4.2925,-4.3049,-4.2801,-4.2811,-4.3342,-4.3356,-4.3368,-4.3586,0,0,0,0,0,0,-4.2618,-4.2628,-4.2819,-4.2822,-4.2646,-4.269,-4.2694,-4.2748,-4.2761,-4.2755,-4.2694,-4.2678,-4.2758,-4.2769,-4.2783,-4.3049,-4.2787,-4.2797,-4.2803,-4.3353,-4.3363,-4.3373,0,0,0,0,0,0,-4.2615,-4.2632,-4.282,-4.2729,-4.2722,-4.2678,-4.2682,-4.2807,-4.2763,-4.2691,-4.2678,-4.2687,-4.2738,-4.2771,-4.2781,-4.2979,-4.2776,-4.2785,-4.2792,-4.2796,-4.3361,-4.337,0,0,0,0,0,0,-4.2621,-4.2636,-4.2728,-4.2722,-4.2715,-4.2751,-4.2788,-4.2896,-4.2683,-4.2692,-4.2662,-4.2652,-4.2743,-4.2751,-4.2781,-4.2975,-4.2978,-4.2776,-4.2783,-4.2787,-4.279,0,0,0,0,0,0,0,-4.2626,-4.2541,-4.2797,-4.2716,-4.271,-4.2856,-4.2857,-4.2858,-4.2681,-4.2672,-4.2664,-4.2656,-4.2724,-4.2734,-4.2744,-4.2972,0,0,-4.2775,-4.278,0,0,0,0,0,0,0,0,-4.2533,-4.2539,-4.2797,-4.2798,-4.2799,-4.2856,-4.2857,-4.2857,-4.2679,-4.2673,-4.2666,-4.266,-4.2726,-4.2734,-4.2743,0,0,0,0,0,0,0,0,0,0,0,0,0,0,0,-4.2797,-4.2798,0,-4.2856,-4.2857,-4.2857,-4.2678,-4.2673,-4.2667,-4.2662,-4.2729,-4.2735,-4.2742,0,0,0,0,0,0,0,0,0,0,0,0,0,0,0,0,0,0,0,0,0,0,0,0,0,0,0,0,0,0,0,0,0,0,0,0,0,0,0,0,0,0,0,0,0,0,0,0,0,0,0,0,0,0,0,0,0,0,0,0,0,0,0,0,0,0,0,0,0]}],[{"header":{"parameterUnit":"kt","parameterCategory":2,"dx":1,"dy":1,"la1":30.253999710083008,"la2":30.299108505249023,"lo1":-89.0895004272461,"lo2":-89.04439544677734,"nx":28,"ny":28,"refTime":"2022-09-23T21:00:00:Z","depth":0,"parameterNumber":2,"parameterNumberName":"V-component_of_WINDS"},"data":[-4.0636,-4.0661,-4.0669,-4.07,-4.0713,-4.0735,-4.0745,-4.0758,-4.0771,-4.0796,-4.0811,-4.082,-4.0834,-4.0852,-4.0868,-4.0871,-4.0877,-4.0879,-4.0882,-4.0867,-4.0865,-4.0863,-4.0858,-4.088,-4.0881,-4.0897,-4.0897,-4.0897,-4.0621,-4.0635,-4.0655,-4.0679,-4.0695,-4.0698,-4.0716,-4.0729,-4.0748,-4.0763,-4.0779,-4.0801,-4.0819,-4.0833,-4.085,-4.0859,-4.086,-4.0863,-4.0862,-4.0863,-4.0848,-4.0843,-4.0862,-4.0862,-4.0862,-4.0862,-4.0862,-4.0862,-4.0597,-4.0612,-4.0632,-4.0653,-4.0668,-4.0684,-4.0698,-4.0711,-4.0728,-4.075,-4.0756,-4.0776,-4.0792,-4.0817,-4.0827,-4.0842,-4.084,-4.0845,-4.0846,-4.0846,-4.0846,-4.0819,-4.0845,-4.0845,-4.0845,-4.0845,-4.0845,0,-4.0581,-4.0587,-4.0608,-4.063,-4.0646,-4.0663,-4.068,-4.069,-4.0704,-4.0718,-4.0739,-4.0751,-4.0776,-4.0794,-4.0813,-4.0822,-4.0824,-4.0826,-4.0829,-4.0825,-4.082,-4.0821,-4.0794,-4.0824,-4.0824,-4.0824,-4.0824,-4.0824,-4.0555,-4.0572,-4.0598,-4.0611,-4.0623,-4.0643,-4.0656,-4.0669,-4.0682,-4.0704,-4.0715,-4.0735,-4.0751,-4.0781,-4.0793,-4.081,-4.0811,-4.0821,-4.0813,-4.081,-4.0809,-4.0807,-4.0808,-4.0822,-4.0823,-4.0823,-4.0823,0,-4.0539,-4.0554,-4.0584,-4.0608,-4.0614,-4.063,-4.065,-4.0664,-4.0675,-4.0696,-4.0701,-4.0717,-4.0736,-4.0747,-4.077,-4.0775,-4.0797,-4.0799,-4.0791,-4.0792,-4.0801,-4.0799,-4.0833,-4.0838,-4.0816,-4.0817,-4.0817,0,-4.0522,-4.0544,-4.0565,-4.0581,-4.0605,-4.0618,-4.0641,-4.0652,-4.0668,-4.0685,-4.0691,-4.0706,-4.0718,-4.0734,-4.0741,-4.0761,-4.0766,-4.077,-4.0772,-4.0769,-4.0769,-4.0775,-4.0773,-4.0777,-4.0776,-4.0776,-4.0776,0,-4.0494,-4.0532,-4.0559,-4.057,-4.0598,-4.061,-4.0622,-4.064,-4.0653,-4.0671,-4.0679,-4.0699,-4.0709,-4.0723,-4.0732,-4.0726,-4.0758,-4.0751,-4.0762,-4.0762,-4.0768,-4.0767,-4.0795,-4.0776,-4.0776,-4.0776,-4.0776,0,-4.0482,-4.0504,-4.0541,-4.0564,-4.0574,-4.0591,-4.0613,-4.0631,-4.0649,-4.0656,-4.067,-4.0675,-4.0696,-4.0688,-4.0716,-4.0705,-4.0714,-4.072,-4.0721,-4.0723,-4.0713,-4.0726,-4.0754,-4.0756,-4.0725,-4.0724,-4.0724,0,-4.0445,-4.0488,-4.05,-4.0535,-4.0557,-4.0563,-4.0582,-4.06,-4.061,-4.0628,-4.0638,-4.0658,-4.0656,-4.0663,-4.0676,-4.0687,-4.07,-4.0685,-4.0706,-4.0707,-4.07,-4.0726,-4.0727,-4.0747,-4.0719,-4.0719,-4.072,0,-4.0418,-4.0455,-4.0461,-4.0473,-4.0501,-4.0519,-4.0542,-4.0566,-4.0577,-4.0596,-4.0614,-4.0643,-4.0641,-4.0654,-4.0661,-4.0673,-4.0691,-4.0669,-4.067,-4.0671,-4.0718,-4.0718,-4.0722,-4.0692,-4.0693,-4.0693,-4.0716,0,-4.0393,-4.0418,-4.0434,-4.0464,-4.0481,-4.0505,-4.052,-4.0535,-4.054,-4.0551,-4.0578,-4.0595,-4.0618,-4.0626,-4.0631,-4.0657,-4.0654,-4.0652,-4.0644,-4.0662,-4.0669,-4.0673,-4.0632,-4.0632,-4.0632,-4.0632,0,0,-4.0352,-4.0388,-4.0403,-4.0427,-4.0441,-4.0448,-4.0472,-4.0487,-4.0516,-4.0525,-4.0521,-4.0565,-4.058,-4.061,-4.0617,-4.0627,-4.0632,-4.0626,-4.0654,-4.0656,-4.0659,-4.0666,-4.067,-4.0632,-4.0631,-4.0631,-4.0631,0,-4.0346,-4.0365,-4.0391,-4.0407,-4.0432,-4.0444,-4.045,-4.0475,-4.0484,-4.0512,-4.0516,-4.0533,-4.0569,-4.0583,-4.0595,-4.0623,-4.0623,-4.0629,-4.0639,-4.0652,-4.0655,-4.0657,-4.0665,-4.0668,-4.0631,-4.0631,-4.0631,0,-4.0321,-4.0341,-4.0356,-4.0393,-4.0409,-4.0432,-4.0428,-4.0453,-4.0469,-4.0473,-4.0501,-4.0513,-4.0533,-4.0562,-4.0575,-4.0572,-4.0615,-4.0605,-4.0606,-4.0607,-4.0621,-4.0624,-4.0626,-4.059,-4.0589,-4.0589,0,0,-4.0313,-4.0338,-4.0364,-4.0393,-4.0403,-4.0421,-4.0435,-4.0442,-4.0462,-4.047,-4.0486,-4.0503,-4.0524,-4.0537,-4.0557,-4.0587,-4.0591,-4.0599,-4.0601,-4.0602,-4.0604,-4.0618,-4.0622,-4.0588,-4.0588,-4.0588,0,0,-4.0309,-4.0342,-4.0345,-4.0381,-4.0401,-4.0427,-4.0443,-4.0446,-4.0467,-4.0465,-4.0477,-4.0482,-4.0509,-4.0521,-4.0509,-4.0554,-4.0547,-4.055,-4.0546,-4.0549,-4.0551,-4.0547,-4.0506,0,0,0,0,0,-4.0312,-4.0338,-4.034,-4.0349,-4.0395,-4.0426,-4.0431,-4.0443,-4.0437,-4.0449,-4.0462,-4.0463,-4.0516,-4.0507,-4.0513,-4.0526,-4.0579,-4.0581,-4.0582,-4.0584,-4.0587,-4.0589,0,0,0,0,0,0,-4.0315,-4.0326,-4.0339,-4.0367,-4.0377,-4.0425,-4.0418,-4.0421,-4.0436,-4.0436,-4.0461,-4.0464,-4.0473,-4.0504,-4.051,-4.0521,-4.0504,-4.0579,-4.0581,-4.0582,-4.0585,-4.0588,-4.0589,0,0,0,0,0,-4.0318,-4.0327,-4.0399,-4.0367,-4.0376,-4.0397,-4.0417,-4.042,-4.0431,-4.0452,-4.0456,-4.0439,-4.0473,-4.0479,-4.0507,-4.0518,-4.05,-4.0503,-4.058,-4.0582,-4.0583,-4.0586,0,0,0,0,0,0,-4.032,-4.0329,-4.0401,-4.0404,-4.0359,-4.0395,-4.0401,-4.0419,-4.0447,-4.0451,-4.0431,-4.0431,-4.0474,-4.0478,-4.0482,-4.0517,-4.0497,-4.0499,-4.0501,-4.0581,-4.0582,-4.0583,0,0,0,0,0,0,-4.0324,-4.0332,-4.0402,-4.0392,-4.0394,-4.0392,-4.0398,-4.0424,-4.0447,-4.0424,-4.0424,-4.0431,-4.0466,-4.0477,-4.0481,-4.0521,-4.0494,-4.0496,-4.0498,-4.0499,-4.0582,-4.0583,0,0,0,0,0,0,-4.0328,-4.0334,-4.0391,-4.0392,-4.0394,-4.0429,-4.0415,-4.0461,-4.044,-4.0422,-4.0438,-4.0437,-4.0465,-4.0469,-4.048,-4.0518,-4.052,-4.0494,-4.0496,-4.0497,-4.0498,0,0,0,0,0,0,0,-4.033,-4.0287,-4.0383,-4.0393,-4.0394,-4.0432,-4.0433,-4.0434,-4.044,-4.0439,-4.0438,-4.0438,-4.0482,-4.0484,-4.0487,-4.0516,0,0,-4.0494,-4.0495,0,0,0,0,0,0,0,0,-4.0285,-4.0287,-4.0383,-4.0383,-4.0384,-4.0433,-4.0433,-4.0434,-4.044,-4.0439,-4.0439,-4.0438,-4.0483,-4.0484,-4.0486,0,0,0,0,0,0,0,0,0,0,0,0,0,0,0,-4.0383,-4.0383,0,-4.0433,-4.0433,-4.0434,-4.044,-4.0439,-4.0439,-4.0438,-4.0483,-4.0485,-4.0486,0,0,0,0,0,0,0,0,0,0,0,0,0,0,0,0,0,0,0,0,0,0,0,0,0,0,0,0,0,0,0,0,0,0,0,0,0,0,0,0,0,0,0,0,0,0,0,0,0,0,0,0,0,0,0,0,0,0,0,0,0,0,0,0,0,0,0,0,0]}]]]